Wind_Speed
25 24 25 26 25 25 26 27 28 28 27 26 26 25 24 24 23 23 22 21 21 22 22 22 22 23 22 22 23 22 23 24 24 25 25 25 25 25 26 26 26 26 27 27
25 25 26 27 26 26 26 27 28 28 27 26 26 25 24 24 23 23 22 22 22 23 23 23 23 23 22 23 23 23 23 24 23 24 25 25 25 25 26 27 27 27 26 26
25 25 27 28 26 26 27 27 28 28 27 26 25 24 25 24 23 22 23 22 22 23 24 24 23 23 23 23 24 24 24 23 23 23 23 24 24 25 25 26 26 25 25 25
27 26 28 26 26 27 27 28 27 27 26 26 25 24 25 24 23 22 23 24 23 23 24 24 24 24 24 24 24 24 24 24 24 24 24 25 25 25 26 25 25 25 24 24
27 28 28 27 27 27 28 27 27 26 25 25 25 24 25 24 23 23 23 24 24 24 24 24 25 25 25 25 25 25 25 25 25 25 25 25 25 26 25 25 24 24 24 24
27 28 28 27 27 28 29 28 27 27 26 25 25 24 24 23 23 23 24 24 23 23 23 23 24 24 25 25 25 26 26 26 26 26 26 25 26 25 25 25 25 24 24 24
27 28 29 27 27 28 29 28 27 26 26 26 26 25 24 24 23 23 24 23 24 23 24 24 24 24 24 25 25 26 26 26 26 26 25 26 26 26 26 26 25 25 25 25
28 28 29 27 27 28 27 27 27 26 26 26 26 26 25 24 23 23 23 24 23 23 23 23 23 24 25 25 25 25 26 26 25 26 26 26 26 26 26 26 26 26 27 27
28 28 28 28 28 27 27 27 27 27 27 27 27 26 26 24 24 24 24 23 23 23 23 23 24 25 25 25 25 25 25 25 25 25 25 25 25 26 27 27 27 27 27 27
28 27 28 28 29 29 28 27 27 27 26 26 27 27 27 26 26 26 26 25 25 25 25 26 26 26 26 25 25 24 24 24 25 24 24 24 25 27 28 28 28 27 26 26
27 27 27 28 29 29 28 28 27 27 26 26 27 26 26 27 27 27 27 26 27 27 26 26 26 26 25 25 25 24 24 24 25 24 25 25 26 27 27 28 27 26 25 25
26 27 27 27 27 27 27 27 26 26 26 26 26 27 27 27 27 27 27 27 27 27 27 27 27 26 25 26 26 26 26 26 26 26 26 26 26 26 26 26 25 24 24 24
26 26 26 27 26 26 25 24 24 25 26 26 26 26 26 26 26 26 27 27 26 26 27 27 27 26 26 27 27 27 27 27 27 27 26 26 25 25 25 25 25 25 25 26
25 26 26 26 26 26 26 25 24 24 25 26 26 26 25 25 25 25 26 26 26 27 27 27 27 26 27 27 26 26 26 26 26 25 25 25 25 25 26 25 25 25 26 26
24 23 23 24 24 25 25 25 25 24 24 24 24 25 25 25 25 25 25 26 26 26 26 26 27 26 26 25 25 25 25 25 25 25 25 25 25 26 26 26 26 25 26 27
22 21 22 22 23 24 25 25 25 24 23 23 24 25 25 25 25 25 26 27 27 26 26 26 26 26 26 26 25 25 25 25 25 25 25 26 26 26 26 25 25 25 26 26
21 22 23 22 23 23 24 24 24 24 24 24 25 25 25 25 25 25 26 26 26 26 26 26 26 26 25 25 25 25 25 25 25 25 26 26 26 26 25 25 24 24 24 25
21 21 21 22 23 24 24 23 23 23 23 24 25 25 25 26 26 26 26 26 26 27 27 27 26 25 25 25 25 25 25 25 25 25 25 26 26 25 25 25 25 25 24 25
21 21 21 22 22 23 22 22 22 22 22 23 24 24 24 25 25 25 25 24 24 25 26 26 26 25 25 24 24 24 24 24 24 25 25 26 25 25 24 24 24 24 25 25
20 20 21 21 22 22 22 21 21 21 23 24 24 25 25 25 25 24 24 24 24 24 25 25 24 24 24 24 24 23 23 23 24 25 25 25 24 23 23 23 23 23 24 24
19 20 20 21 21 21 21 22 22 22 23 24 24 24 25 25 24 24 24 24 24 24 24 24 24 23 23 23 23 23 23 23 24 24 24 24 23 23 23 23 23 23 23 23
19 19 20 20 21 21 21 21 21 22 23 24 24 24 24 24 25 25 24 24 23 23 23 23 23 23 23 24 24 24 24 24 24 24 24 24 23 23 22 22 22 22 22 22
20 19 20 20 21 21 21 21 22 22 22 23 23 23 23 23 24 24 24 23 23 23 22 23 23 22 22 23 23 24 24 25 24 24 23 23 23 23 22 22 22 22 22 22
20 20 20 20 20 20 21 21 21 22 23 23 22 22 22 22 22 23 23 23 23 23 23 23 22 22 22 23 24 24 24 24 23 23 23 23 23 23 23 22 22 22 22 22
19 19 19 19 19 19 20 21 21 21 21 20 21 21 22 21 21 22 22 22 22 23 23 23 23 23 23 24 24 23 23 23 22 22 22 22 23 23 23 23 23 23 23 23
18 18 18 18 19 19 19 20 20 20 20 20 20 20 20 20 20 20 21 21 21 22 22 23 23 23 23 23 23 23 22 22 21 21 21 22 23 23 23 22 22 23 23 23
18 17 18 18 18 19 19 20 19 19 19 19 19 19 20 20 20 20 21 21 22 22 22 22 22 22 21 21 22 21 22 22 22 22 22 23 23 23 23 22 22 23 23 24
Wind_Direction
255 256 258 258 258 260 263 266 270 274 277 280 281 282 283 284 287 288 285 282 282 283 285 286 285 285 283 282 285 285 284 283 283 284 288 290 289 291 293 293 294 293 292 291
256 259 260 260 261 264 266 268 269 272 274 277 280 281 283 283 283 284 285 285 284 284 285 286 286 286 285 285 288 288 287 288 286 286 288 289 289 291 292 294 294 294 292 290
258 260 260 259 262 264 266 267 269 271 274 275 278 279 281 283 283 282 284 286 286 285 286 287 286 285 285 286 287 288 288 287 287 290 292 291 292 293 293 294 294 294 293 289
261 260 259 262 263 265 267 266 266 269 270 272 277 279 280 282 281 280 283 284 285 286 288 287 287 286 286 286 286 285 286 286 287 290 291 291 291 292 294 294 293 293 293 291
260 260 260 262 265 267 267 264 263 267 270 272 275 278 278 279 280 280 282 284 285 286 287 287 288 288 287 287 286 286 286 286 287 289 290 290 291 292 293 292 292 292 292 291
260 263 264 265 267 268 268 265 265 266 268 270 271 272 275 275 276 279 281 282 284 285 285 285 287 288 285 284 285 285 285 285 286 288 289 289 290 291 292 291 291 292 292 294
260 263 266 267 268 267 266 267 265 265 267 269 270 272 273 274 275 278 278 281 284 284 282 282 284 285 283 284 285 284 284 284 285 287 287 288 288 290 291 291 291 293 295 295
260 260 264 267 268 268 269 267 265 266 267 269 270 271 271 271 271 274 276 280 283 284 283 284 285 285 286 286 285 283 283 283 285 286 287 287 288 290 292 293 294 295 295 294
263 264 266 267 268 268 267 267 266 266 267 268 269 269 268 268 271 275 279 281 283 285 284 286 287 289 291 288 286 285 282 281 283 287 288 289 291 293 294 295 295 294 294 294
264 265 267 266 266 266 267 268 267 265 265 267 268 268 268 268 271 275 279 281 283 285 287 287 289 291 292 289 288 287 286 284 285 288 289 291 292 293 294 295 295 293 292 293
265 267 267 267 266 265 267 269 267 264 264 265 266 266 267 268 272 276 278 281 282 285 286 286 287 290 291 291 288 287 286 287 288 288 288 290 292 293 294 295 294 292 291 291
268 268 269 267 265 264 266 269 267 263 264 263 263 265 267 271 274 276 277 280 282 283 283 284 287 288 288 289 288 287 287 287 286 286 286 288 291 293 295 295 294 291 290 290
266 265 267 267 267 265 266 268 268 265 265 264 265 266 269 272 274 276 276 278 278 281 283 284 286 289 288 287 287 287 287 286 286 286 287 289 290 292 294 294 292 290 290 291
266 266 266 264 262 262 262 265 264 262 262 263 265 267 268 270 274 277 278 278 279 281 283 284 286 287 287 288 288 288 288 288 288 288 289 290 291 293 294 294 292 290 290 290
267 266 266 263 261 260 262 265 266 264 264 263 264 267 269 272 274 276 278 280 280 281 282 282 284 284 286 287 288 289 290 290 289 289 290 291 292 293 293 292 292 292 291 291
264 264 263 262 262 264 264 263 264 263 262 263 265 268 270 272 274 275 276 277 277 279 280 282 283 285 284 284 286 288 289 290 289 289 289 290 291 293 293 292 292 292 293 293
264 264 264 265 266 269 269 267 265 262 261 264 267 269 271 274 275 274 276 277 278 280 281 283 284 286 286 285 286 287 288 289 289 289 289 290 291 292 293 292 292 294 296 296
268 265 266 268 269 268 268 268 269 268 266 266 268 271 272 274 275 275 277 278 279 279 282 284 285 285 284 285 285 287 288 288 288 289 289 290 291 292 292 292 291 292 294 296
269 270 269 270 270 269 268 267 269 268 267 268 271 273 274 274 274 275 276 277 278 279 282 283 283 284 285 286 287 287 287 288 288 288 290 290 290 291 291 292 292 292 293 294
271 270 269 269 270 270 269 269 270 269 269 271 273 275 277 277 277 277 276 276 278 280 281 282 283 283 284 284 285 287 288 290 290 290 291 291 291 291 292 292 292 293 292 293
270 269 271 272 273 271 270 271 272 273 272 272 275 277 278 279 279 279 278 277 278 280 281 282 283 283 282 283 284 286 289 291 292 293 293 292 292 292 292 292 292 292 292 293
272 272 273 274 274 273 273 272 273 274 275 275 275 276 278 279 280 279 279 278 278 278 280 282 283 284 283 284 286 288 288 289 291 291 291 291 292 293 293 293 293 292 292 292
274 272 272 272 273 275 274 273 274 275 277 277 276 275 277 278 278 278 278 278 279 279 279 280 282 285 286 287 288 289 289 289 290 290 290 291 292 293 293 292 291 292 291 290
274 271 272 273 274 274 275 276 276 277 279 278 276 276 278 279 279 278 279 278 279 281 280 280 281 282 284 284 286 287 288 289 290 290 290 291 291 291 290 290 288 288 289 290
276 275 275 276 276 275 274 277 278 280 279 279 279 279 279 278 278 279 280 281 280 280 281 280 280 280 282 284 285 287 289 289 290 291 292 292 291 291 289 288 287 286 287 289
280 279 278 277 276 277 278 279 278 276 277 278 278 278 279 279 280 281 282 283 283 283 283 283 282 281 282 284 285 285 286 287 288 289 290 292 292 291 291 290 289 288 288 288
280 279 278 278 278 280 280 280 280 277 275 276 277 279 281 281 281 282 284 285 285 287 286 284 283 282 282 284 284 283 283 284 286 288 290 291 292 291 291 291 290 289 288 289
Height
5777 5778 5779 5781 5781 5782 5782 5782 5783 5784 5784 5786 5785 5785 5785 5784 5782 5781 5779 5778 5777 5776 5775 5774 5772 5771 5769 5768 5768 5768 5767 5767 5765 5764 5762 5760 5759 5757 5755 5753 5751 5749 5747 5745
5771 5772 5773 5773 5775 5776 5776 5776 5776 5777 5778 5778 5778 5778 5778 5777 5776 5775 5773 5772 5771 5770 5769 5768 5767 5766 5764 5763 5763 5762 5761 5760 5758 5757 5755 5753 5752 5750 5748 5746 5744 5742 5739 5738
5764 5765 5765 5766 5768 5769 5769 5770 5770 5770 5772 5771 5772 5772 5772 5771 5770 5769 5767 5766 5765 5763 5763 5762 5761 5760 5759 5758 5757 5755 5754 5753 5751 5750 5748 5747 5745 5743 5741 5739 5737 5735 5732 5731
5757 5759 5758 5762 5762 5762 5762 5763 5763 5763 5764 5764 5765 5765 5765 5764 5763 5762 5760 5759 5758 5757 5756 5755 5754 5753 5752 5751 5749 5748 5747 5746 5744 5743 5742 5740 5738 5737 5735 5733 5731 5728 5726 5724
5750 5750 5751 5754 5754 5755 5755 5756 5756 5757 5757 5758 5758 5758 5758 5757 5756 5755 5754 5753 5752 5751 5750 5749 5747 5746 5745 5744 5742 5741 5740 5738 5737 5736 5735 5733 5732 5730 5728 5726 5724 5722 5720 5718
5742 5743 5744 5748 5748 5747 5748 5748 5749 5750 5750 5751 5751 5751 5752 5751 5750 5749 5748 5747 5746 5744 5743 5742 5740 5739 5738 5736 5735 5734 5732 5731 5730 5729 5727 5726 5725 5723 5721 5719 5717 5715 5713 5711
5736 5736 5737 5739 5740 5740 5741 5742 5742 5742 5743 5743 5743 5744 5745 5744 5743 5742 5741 5740 5738 5737 5736 5735 5734 5732 5731 5729 5728 5726 5725 5724 5723 5721 5720 5719 5717 5716 5714 5712 5709 5707 5706 5704
5729 5729 5732 5732 5732 5733 5733 5733 5734 5734 5734 5735 5735 5736 5736 5736 5735 5734 5734 5733 5731 5730 5729 5728 5727 5725 5724 5722 5721 5719 5718 5717 5715 5714 5712 5711 5710 5708 5706 5704 5702 5700 5698 5696
5722 5724 5724 5724 5724 5724 5724 5725 5725 5726 5726 5727 5727 5727 5727 5727 5727 5727 5726 5726 5725 5724 5723 5722 5720 5718 5717 5715 5713 5712 5710 5709 5708 5707 5705 5704 5703 5701 5699 5697 5694 5692 5690 5688
5713 5715 5715 5715 5715 5716 5716 5717 5717 5717 5718 5718 5718 5718 5719 5719 5719 5719 5719 5718 5718 5717 5716 5715 5713 5711 5709 5707 5706 5705 5703 5702 5700 5699 5698 5696 5695 5693 5691 5689 5687 5684 5682 5680
5706 5707 5707 5707 5707 5708 5708 5708 5708 5709 5709 5710 5710 5710 5711 5711 5711 5711 5711 5711 5710 5709 5708 5707 5706 5704 5702 5700 5698 5697 5696 5695 5693 5691 5690 5689 5687 5685 5683 5681 5679 5677 5675 5673
5698 5699 5699 5700 5699 5699 5700 5700 5700 5701 5701 5702 5702 5702 5703 5703 5703 5703 5703 5702 5701 5700 5700 5699 5698 5696 5694 5693 5691 5690 5689 5687 5685 5684 5682 5681 5679 5678 5675 5674 5672 5669 5668 5666
5690 5690 5691 5691 5692 5692 5692 5692 5692 5693 5693 5694 5694 5695 5695 5695 5695 5695 5694 5694 5694 5693 5692 5691 5690 5689 5687 5685 5683 5682 5680 5679 5677 5676 5674 5673 5671 5670 5668 5666 5664 5662 5660 5658
5682 5683 5683 5684 5684 5684 5685 5685 5685 5685 5686 5687 5687 5688 5688 5688 5688 5687 5687 5687 5686 5685 5684 5683 5682 5680 5679 5677 5676 5674 5672 5671 5669 5668 5667 5665 5664 5662 5660 5659 5657 5655 5653 5651
5675 5675 5676 5676 5677 5677 5677 5678 5678 5679 5679 5680 5680 5680 5680 5680 5680 5680 5679 5679 5678 5677 5676 5675 5673 5672 5670 5669 5668 5666 5665 5663 5662 5660 5659 5658 5656 5654 5653 5651 5649 5647 5645 5643
5668 5668 5668 5669 5670 5670 5670 5671 5671 5672 5673 5673 5673 5673 5673 5673 5673 5672 5672 5671 5670 5669 5668 5666 5665 5664 5662 5661 5660 5659 5657 5656 5654 5653 5651 5650 5648 5646 5645 5643 5641 5639 5638 5635
5661 5662 5662 5662 5663 5663 5663 5664 5664 5665 5665 5666 5666 5666 5665 5665 5665 5664 5664 5663 5662 5661 5660 5659 5658 5656 5655 5654 5652 5651 5650 5649 5647 5645 5644 5642 5641 5639 5637 5635 5633 5632 5630 5627
5655 5655 5655 5656 5656 5656 5657 5657 5657 5657 5658 5658 5658 5658 5658 5658 5657 5657 5656 5655 5654 5653 5652 5651 5650 5649 5647 5646 5645 5643 5642 5641 5640 5638 5636 5635 5633 5631 5629 5627 5626 5624 5622 5620
5648 5648 5649 5649 5650 5650 5650 5650 5650 5651 5651 5651 5651 5651 5650 5650 5649 5649 5648 5647 5646 5646 5645 5643 5642 5641 5640 5638 5637 5636 5634 5633 5632 5630 5629 5627 5625 5623 5621 5620 5618 5616 5615 5613
5642 5642 5643 5643 5643 5643 5643 5644 5644 5644 5644 5644 5644 5643 5643 5642 5641 5641 5640 5639 5638 5637 5636 5635 5634 5633 5632 5631 5630 5628 5627 5625 5624 5622 5620 5619 5617 5615 5614 5612 5611 5609 5608 5606
5636 5636 5637 5637 5637 5637 5637 5637 5638 5637 5637 5637 5637 5636 5635 5634 5633 5633 5632 5632 5631 5630 5629 5628 5627 5626 5625 5624 5622 5621 5620 5618 5617 5615 5613 5612 5610 5608 5607 5605 5604 5602 5601 5599
5630 5630 5631 5631 5631 5631 5631 5631 5631 5630 5630 5630 5629 5629 5628 5627 5626 5626 5625 5624 5624 5623 5622 5621 5620 5619 5617 5616 5615 5614 5613 5611 5610 5608 5606 5605 5603 5602 5600 5598 5597 5595 5594 5592
5624 5625 5625 5624 5624 5624 5624 5624 5624 5623 5623 5623 5622 5621 5621 5620 5619 5619 5618 5617 5617 5616 5615 5614 5612 5611 5610 5609 5608 5606 5605 5604 5602 5601 5599 5598 5596 5595 5593 5591 5590 5588 5587 5585
5619 5619 5618 5618 5618 5618 5618 5617 5617 5616 5616 5615 5615 5614 5613 5613 5612 5611 5611 5610 5609 5608 5607 5606 5605 5604 5603 5602 5600 5599 5597 5596 5595 5593 5592 5591 5589 5588 5586 5584 5583 5581 5580 5578
5613 5612 5612 5612 5611 5611 5611 5610 5610 5609 5609 5608 5607 5607 5606 5606 5605 5605 5604 5603 5602 5601 5600 5599 5598 5597 5596 5594 5593 5591 5590 5589 5588 5586 5585 5583 5582 5580 5578 5577 5575 5574 5572 5571
5607 5606 5606 5605 5605 5604 5604 5603 5603 5602 5602 5601 5601 5600 5600 5599 5598 5598 5597 5596 5595 5593 5592 5591 5590 5589 5588 5586 5585 5584 5583 5582 5581 5579 5578 5576 5575 5573 5571 5569 5567 5566 5564 5563
5601 5600 5600 5599 5599 5598 5597 5597 5596 5596 5595 5595 5594 5594 5593 5593 5592 5591 5590 5589 5588 5587 5585 5584 5582 5581 5580 5579 5578 5577 5576 5575 5574 5572 5571 5570 5568 5566 5564 5562 5560 5558 5557 5555